Regional Weather Roundup
Issued by NWS

Home | Current Version | Previous Version | Graphics & Text | Print | Product List | Glossary On
Versions: 1 2 3 4 5 6 7 8 9 10 11 12 13 14 15 16 17 18 19 20 21 22 23 24 25 26 27
000
ASUS45 KCYS 220310
RWRWY

WYOMING REGIONAL WEATHER ROUNDUP
NATIONAL WEATHER SERVICE CHEYENNE WY
900 PM MDT FRI JUL 21 2017

NOTE:  "FAIR" INDICATES FEW OR NO CLOUDS BELOW 12,000 FEET
WITH NO SIGNIFICANT WEATHER AND/OR OBSTRUCTIONS TO VISIBILITY.

WYZ001-220400-
YELLOWSTONE NATIONAL PARK

CITY           SKY/WX    TMP DP  RH WIND       PRES   REMARKS
LK YELLOWSTONE   N/A     58  40  51 CALM      30.33R
W YELLOWSTONE  NOT AVBL

$$
WYZ002>013-054>058-071-098>099-220400-
NORTHERN WYOMING

CITY           SKY/WX    TMP DP  RH WIND       PRES   REMARKS
JACKSON        FAIR      64  39  39 NW5       30.22R
CODY           FAIR      77  38  24 NW6       30.10R
GREYBULL       FAIR      85  33  15 NW8       29.96R
WORLAND        FAIR      76  45  33 NE6       29.97R
SHERIDAN       FAIR      71  45  39 W9        30.02R
BUFFALO        FAIR      68  43  40 W8        30.10R
GILLETTE       FAIR      72  36  26 NW7       30.03R
HULETT         FAIR      72  41  33 E5        30.05R
NEWCASTLE      FAIR      77  37  24 CALM      30.03R

$$
WYZ014>020-022>026-101>103-220400-
CENTRAL WYOMING

CITY           SKY/WX    TMP DP  RH WIND       PRES   REMARKS
BIG PINEY      FAIR      66  34  30 N12       30.26R
PINEDALE       FAIR      63  39  42 NW6       30.28R
DUBOIS         FAIR      68  21  17 W12       30.26R
LANDER         FAIR      74  36  25 W12       30.08R
RIVERTON       FAIR      77  28  16 NW13      30.08R
CASPER         FAIR      78  43  28 CALM      30.07R
DOUGLAS        MOCLDY    78  49  35 S8        30.08R

$$
WYZ021-027>030-104>119-220400-
SOUTHERN WYOMING

CITY           SKY/WX    TMP DP  RH WIND       PRES   REMARKS
EVANSTON       FAIR      74  38  27 N8        30.25R
KEMMERER         N/A    N/A N/A N/A N14       30.28R
FORT BRIDGER   FAIR      78  35  21 N9        30.27R
ROCK SPRINGS   FAIR      75  50  41 SW9       30.22R
RAWLINS        FAIR      66  49  54 S6        30.24R
SARATOGA       FAIR      59  52  77 SE12G18   30.30R
LARAMIE        CLOUDY    57  51  80 E16       30.29F
CHEYENNE       LGT RAIN  61  55  81 NW7       30.32S
TORRINGTON     FAIR      82  43  25 W26G33    30.02S
PINE BLUFFS    LGT RAIN  68  52  56 NW28G41   30.18R

$$




USA.gov is the U.S. government's official web portal to all federal, state and local government web resources and services.